Location: Unspecified
(0.0000°N, 0.0000°E)
Time: 20:19:54
(UTC+00:00)

ARIANE 2 DEB - Pass Details

Date: 13 March 2026
Orbit: 794 x 35760 km, 8.3° (Epoch: 17 April)

Event Time Altitude Azimuth Distance (km) Brightness Sun altitude
Rises 12:53:32 0° 260° (W) 10,382 ? 78.6°
Reaches altitude 10° 12:58:44 10° 260° (W) 10,774 ? 77.4°
Maximum altitude 14:47:35 59° 264° (W) 26,773 ? 50.4°
Enters shadow 22:44:03 52° 298° (WNW) 5,070 ? -68.5°
